Printer-friendly version
Follow the MPC on Twitter Follow the MPC on Facebook The MPC blog
Minor Planet Center

MPEC 2004-K47 : 2000 WM107

The following Minor Planet Electronic Circular may be linked-to from your own Web pages, but must not otherwise be redistributed electronically.

A form allowing access to any MPEC is at the bottom of this page.


Read MPEC 2004-K46 Read MPEC 2004-K48


M.P.E.C. 2004-K47                                Issued 2004 May 23, 11:15 UT

     The Minor Planet Electronic Circulars contain information on unusual
         minor planets and routine data on comets.  They are published
   on behalf of Commission 20 of the International Astronomical Union by the
          Minor Planet Center, Smithsonian Astrophysical Observatory,
                          Cambridge, MA 02138, U.S.A.

         Supported in part by the Steven and Michele Kirsch Foundation
             Prepared using the Tamkin Foundation Computer Network

                              MPC@CFA.HARVARD.EDU
          URL http://cfa-www.harvard.edu/iau/mpc.html  ISSN 1523-6714

                                  2000 WM107

                           Revision to MPEC 2000-X07

Additional Observations:
     K00WA7M  C2004 05 22.43375 17 47 49.18 -24 26 51.7                 EK047926
     K00WA7M  C2004 05 22.43644 17 47 49.00 -24 26 54.6                 EK047926
     K00WA7M  C2004 05 22.43983 17 47 48.83 -24 26 58.1                 EK047926
     K00WA7M  C2004 05 23.33959 17 47 11.96 -24 42 54.9                 EK047926
     K00WA7M  C2004 05 23.34648 17 47 11.63 -24 43 03.8          21.0 R EK047926
     K00WA7M  C2004 05 23.34990 17 47 11.48 -24 43 07.4          21.1 R EK047926
     K00WA7M  C2004 05 23.35675 17 47 11.10 -24 43 15.0                 EK047926

Observer details:
926 Tenagra II Observatory.  Observers P. R. Holvorcem, M. Schwartz.  0.81-m
    f/7 Ritchey-Chretien + CCD.

First and last observations above in comparison with prediction:
Residuals in seconds of arc (or two decimals in degrees), reference and Delta-T
040522 926 0.05- 0.02+    040523 926 0.06- 0.02+    MPO 12255   +0.058 day

Orbital elements:
2000 WM107
Epoch 2004 July 14.0 TT = JDT 2453200.5                 MPC
M 342.48347              (2000.0)            P               Q
n   0.24336966     Peri.  281.03571     +0.93926511     +0.13715780
a   2.5407295      Node    71.67442     +0.02896700     +0.88171180
e   0.6074159      Incl.   19.35377     -0.34196780     +0.45141117
P   4.05           H   19.0           G   0.15           U   3
Residuals in seconds of arc
001129 704  0.3-  0.0     001201 046  0.4-  0.2+    001220 540  0.1-  0.5-
001129 704  0.3-  0.1+    001201 711  0.1-  0.5-    001220 540  0.7+  0.2-
001129 704  0.2+  0.2+    001201 711  0.1-  1.4+    001220 540  0.4+  0.3+
001129 704  0.2+  0.0     001201 711  0.4-  0.5+    001220 540  0.5-  0.4-
001130 704  0.5+  1.2+    001201 413  0.0   0.1+    010228 568  0.1+  0.0
001130 704  0.0   0.2+    001201 413  0.2+  0.0     010228 568  0.1-  0.1+
001130 704  0.1-  0.3-    001201 413  0.1-  0.1-    040522 926  1.1+  0.4+
001130 704  0.4+  0.3+    001207 046  0.5+  0.7-    040522 926  0.3+  0.3+
001130 711  0.0   0.4-    001207 046  0.0   0.3-    040522 926  0.0   0.3+
001130 711  0.4-  0.7-    001207 046  0.0   0.4+    040523 926  0.0   1.4+
001130 704  0.2-  0.1-    001207 046  0.3-  0.9+    040523 926  0.1-  0.0
001130 711  0.2-  0.4-    001207 046  0.5+  0.2+    040523 926  0.1+  0.1+
001130 046  0.2-  0.3+    001212 413  0.1+  0.6-    040523 926  0.7-  0.1-
001130 046  0.0   0.0     001220 696  0.1-  0.2-
001201 046  0.5-  0.4+    001220 696  0.0   0.4-

Ephemeris:
2000 WM107               a,e,i = 2.54, 0.61, 19                  q = 0.9974
Date    TT    R. A. (2000) Decl.     Delta      r     Elong.  Phase     V
2004 05 15    17 51.33   -22 29.8    0.915    1.844   146.4    17.6    21.1
2004 05 25    17 45.93   -25 13.3    0.785    1.763   157.2    12.9    20.5
2004 06 04    17 34.76   -28 48.2    0.676    1.681   167.9     7.3    19.8
2004 06 14    17 16.73   -33 14.7    0.589    1.599   169.6     6.6    19.4
2004 06 24    16 51.50   -38 16.7    0.527    1.516   157.3    15.0    19.3
2004 07 04    16 20.54   -43 23.1    0.488    1.435   142.5    25.6    19.4
2004 07 14    15 47.13   -48 03.6    0.467    1.355   127.9    36.3    19.5
2004 07 24    15 15.47   -52 09.3    0.458    1.278   114.8    46.2    19.6
2004 08 03    14 48.31   -55 55.1    0.454    1.206   103.7    54.9    19.7
2004 08 13    14 25.65   -59 42.0    0.448    1.140    94.6    62.4    19.8
2004 08 23    14 05.39   -63 47.8    0.438    1.084    87.4    68.8    19.8
2004 09 02    13 42.56   -68 22.0    0.420    1.040    82.3    74.1    19.8
2004 09 12    13 07.07   -73 22.1    0.395    1.010    79.3    78.2    19.7
2004 09 22    11 51.94   -78 21.4    0.363    0.998    78.6    80.5    19.6
2004 10 02    08 55.76   -80 44.7    0.326    1.003    81.1    80.2    19.4
2004 10 12    05 54.54   -75 32.8    0.288    1.026    87.4    76.3    19.0
2004 10 22    04 32.34   -63 38.6    0.255    1.065    98.9    67.4    18.5
2004 11 01    03 51.76   -46 21.3    0.236    1.117   116.2    52.9    18.0
2004 11 11    03 27.72   -25 58.6    0.244    1.179   136.3    35.5    17.8
2004 11 21    03 13.20   -07 33.6    0.289    1.249   151.3    22.3    17.9
2004 12 01    03 05.84   +05 48.8    0.365    1.324   154.2    18.9    18.4
2004 12 11    03 04.15   +14 40.4    0.466    1.403   148.4    21.5    19.1
2004 12 21    03 07.13   +20 31.8    0.586    1.484   140.6    24.9    19.8
2004 12 31    03 13.88   +24 31.7    0.723    1.566   132.7    27.5    20.5
2005 01 10    03 23.56   +27 22.3    0.872    1.649   125.3    29.1    21.1
2005 01 20    03 35.60   +29 28.7    1.033    1.731   118.2    30.1    21.6
2005 01 30    03 49.47   +31 05.3    1.203    1.812   111.4    30.4    22.0

Timothy B. Spahr             (C) Copyright 2004 MPC           M.P.E.C. 2004-K47

Read MPEC 2004-K46 Read MPEC 2004-K48


MPEC number:

Enter an MPEC number in one of the following forms:

  • 1997-B01 (the full form)
  • J97B01 (the packed version of the full form)
  • B01 (the abbreviated form)

Valid HTML 4.01!